BOX467 ENZV-EDDF

Flight info

Callsign BOX467
Flight time N/A
Altitude 36000
Route RUMOG DCT ATNAK DCT SUTEB DCT SOGPO DCT DIXAT DIXAT1D
Aircraft B77L/H-SDE1E2E3FGHIJ2J3J4J5M1RWXY/LB1D1

Departure

Time 2026-04-15 09:05
Airport Stavanger Airport, Sola (ENZV)

Arrival

Time N/A
Airport Frankfurt Main Airport (EDDF)
Time Latitude Longitude Altitude Speed Heading
2026-04-15 08:46 58.88627 5.63323 35 ft 0 kts 323°
2026-04-15 08:59 58.88623 5.63328 35 ft 3 kts 323°
2026-04-15 08:59 58.88602 5.63360 33 ft 4 kts 322°
2026-04-15 08:59 58.88580 5.63391 32 ft 4 kts 322°
2026-04-15 08:59 58.88559 5.63420 31 ft 4 kts 339°
2026-04-15 09:00 58.88533 5.63429 35 ft 4 kts
2026-04-15 09:00 58.88507 5.63423 33 ft 3 kts
2026-04-15 09:00 58.88504 5.63423 32 ft 0 kts
2026-04-15 09:02 58.88506 5.63423 33 ft 1 kts
2026-04-15 09:02 58.88523 5.63424 33 ft 4 kts
2026-04-15 09:02 58.88566 5.63424 35 ft 7 kts 359°
2026-04-15 09:02 58.88616 5.63421 36 ft 7 kts 358°
2026-04-15 09:03 58.88666 5.63419 36 ft 7 kts 359°
2026-04-15 09:03 58.88705 5.63467 36 ft 7 kts 66°
2026-04-15 09:03 58.88710 5.63570 34 ft 9 kts 90°
2026-04-15 09:03 58.88708 5.63703 32 ft 7 kts 96°
2026-04-15 09:04 58.88684 5.63756 33 ft 4 kts 160°
2026-04-15 09:04 58.88649 5.63756 33 ft 15 kts 180°
2026-04-15 09:04 58.88241 5.63768 36 ft 109 kts 179°
2026-04-15 09:04 58.87203 5.63778 332 ft 170 kts 175°
2026-04-15 09:05 58.86091 5.63807 1878 ft 154 kts 172°
2026-04-15 09:05 58.84951 5.63849 2584 ft 175 kts 172°
2026-04-15 09:05 58.83634 5.63896 2786 ft 203 kts 173°
2026-04-15 09:05 58.82149 5.63946 3048 ft 227 kts 174°
2026-04-15 09:06 58.80544 5.63987 3773 ft 235 kts 175°
2026-04-15 09:06 58.78892 5.64031 4594 ft 239 kts 176°
2026-04-15 09:06 58.77206 5.64078 5305 ft 246 kts 178°
2026-04-15 09:06 58.75462 5.64136 5960 ft 256 kts 179°
2026-04-15 09:07 58.73668 5.64203 6749 ft 259 kts 179°
2026-04-15 09:07 58.71833 5.64261 7404 ft 268 kts 180°
2026-04-15 09:07 58.69933 5.64323 8044 ft 275 kts 180°
2026-04-15 09:07 58.68018 5.64306 8839 ft 277 kts 185°
2026-04-15 09:08 58.66076 5.63909 9557 ft 282 kts 190°
2026-04-15 09:08 58.64118 5.63378 10282 ft 287 kts 190°
2026-04-15 09:08 58.62102 5.62816 10709 ft 302 kts 191°
2026-04-15 09:08 58.59931 5.62219 10878 ft 327 kts 191°
2026-04-15 09:09 58.57599 5.61593 11069 ft 350 kts 190°
2026-04-15 09:09 58.55110 5.60951 11329 ft 369 kts 189°
2026-04-15 09:09 58.52512 5.60299 11851 ft 382 kts 189°
2026-04-15 09:09 58.49848 5.59640 12444 ft 390 kts 188°
2026-04-15 09:10 58.47176 5.58986 13222 ft 394 kts 189°
2026-04-15 09:10 58.44431 5.58312 13893 ft 400 kts 189°
2026-04-15 09:10 58.41647 5.57633 14601 ft 404 kts 189°
2026-04-15 09:10 58.38848 5.56947 15334 ft 407 kts 189°
2026-04-15 09:11 58.36011 5.56250 16009 ft 412 kts 189°
2026-04-15 09:11 58.33143 5.55549 16696 ft 419 kts 189°
2026-04-15 09:11 58.30230 5.54841 17505 ft 423 kts 190°
2026-04-15 09:11 58.27323 5.54134 18199 ft 430 kts 189°
2026-04-15 09:12 58.24332 5.53407 18874 ft 435 kts 189°
2026-04-15 09:12 58.21311 5.52673 19526 ft 439 kts 190°
2026-04-15 09:12 58.18286 5.51718 20160 ft 443 kts 194°
2026-04-15 09:12 58.15269 5.50419 20792 ft 447 kts 196°
2026-04-15 09:13 58.12235 5.48973 21414 ft 451 kts 197°
2026-04-15 09:13 58.09180 5.47490 22017 ft 456 kts 197°
2026-04-15 09:13 58.06086 5.46015 22679 ft 459 kts 196°